TimeEDT,TemperatureF,Dew PointF,Humidity,Sea Level PressureIn,VisibilityMPH,Wind Direction,Wind SpeedMPH,Gust SpeedMPH,PrecipitationIn,Events,Conditions,WindDirDegrees,DateUTC
12:15 AM,60.8,54.7,80,30.02,5.0,Calm,Calm,-,N/A,,Haze,0,2013-04-30 04:15:00
12:35 AM,60.4,54.5,81,30.02,1.0,Calm,Calm,-,N/A,,Haze,0,2013-04-30 04:35:00
12:55 AM,60.4,54.5,81,30.02,1.0,Calm,Calm,-,N/A,,Haze,0,2013-04-30 04:55:00
1:15 AM,60.4,54.5,81,30.02,0.2,Calm,Calm,-,N/A,,Haze,0,2013-04-30 05:15:00
1:35 AM,60.4,54.5,81,30.02,1.0,Calm,Calm,-,N/A,,Haze,0,2013-04-30 05:35:00
1:55 AM,59.4,53.4,81,30.02,2.5,Calm,Calm,-,N/A,,Haze,0,2013-04-30 05:55:00
2:15 AM,59.0,53.1,81,30.02,5.0,Calm,Calm,-,N/A,,Haze,0,2013-04-30 06:15:00
2:35 AM,58.6,52.7,81,30.01,7.0,Calm,Calm,-,N/A,,Mostly Cloudy,0,2013-04-30 06:35:00
2:55 AM,58.1,52.0,80,30.01,0.2,Calm,Calm,-,N/A,,Haze,0,2013-04-30 06:55:00
3:15 AM,58.1,52.0,80,30.01,0.2,Calm,Calm,-,N/A,,Haze,0,2013-04-30 07:15:00
3:35 AM,58.1,52.0,80,30.02,0.2,Calm,Calm,-,N/A,,Haze,0,2013-04-30 07:35:00
3:55 AM,58.1,52.0,80,30.02,0.2,Calm,Calm,-,N/A,Rain,Light Rain,0,2013-04-30 07:55:00
4:15 AM,58.1,52.0,80,30.03,0.2,Calm,Calm,-,N/A,,Light Drizzle,0,2013-04-30 08:15:00
4:35 AM,58.1,52.0,80,30.03,0.2,Calm,Calm,-,N/A,,Haze,0,2013-04-30 08:35:00
4:55 AM,58.1,52.0,80,30.03,0.5,Calm,Calm,-,N/A,,Haze,0,2013-04-30 08:55:00
5:15 AM,58.1,52.0,80,30.03,2.5,Calm,Calm,-,N/A,,Haze,0,2013-04-30 09:15:00
5:35 AM,58.1,52.0,80,30.03,5.0,North,3.5,-,N/A,,Haze,360,2013-04-30 09:35:00
5:55 AM,58.1,52.0,80,30.04,4.0,North,3.5,-,N/A,,Haze,360,2013-04-30 09:55:00
6:15 AM,58.1,52.0,80,30.05,1.0,Calm,Calm,-,N/A,,Haze,0,2013-04-30 10:15:00
6:35 AM,58.1,52.0,80,30.05,10.0,Calm,Calm,-,N/A,,Overcast,0,2013-04-30 10:35:00
6:55 AM,58.1,52.2,81,30.06,10.0,Calm,Calm,-,N/A,,Overcast,0,2013-04-30 10:55:00
7:15 AM,59.2,53.2,81,30.07,10.0,NNW,3.5,-,N/A,,Overcast,340,2013-04-30 11:15:00
7:35 AM,60.4,54.5,81,30.07,1.2,Calm,Calm,-,N/A,,Haze,0,2013-04-30 11:35:00
7:55 AM,60.4,54.5,81,30.08,2.5,Calm,Calm,-,N/A,,Haze,0,2013-04-30 11:55:00
8:15 AM,61.0,54.9,80,30.08,2.0,ENE,4.6,-,N/A,,Haze,60,2013-04-30 12:15:00
8:35 AM,61.0,54.9,80,30.09,1.5,NE,5.8,-,N/A,,Haze,40,2013-04-30 12:35:00
8:55 AM,63.0,56.8,80,30.10,5.0,NNE,4.6,-,N/A,,Haze,30,2013-04-30 12:55:00
9:15 AM,63.0,56.8,80,30.10,7.0,NNE,4.6,-,N/A,,Overcast,20,2013-04-30 13:15:00
9:35 AM,63.0,56.8,80,30.10,10.0,ENE,5.8,-,N/A,,Overcast,70,2013-04-30 13:35:00
9:55 AM,63.0,56.8,80,30.10,10.0,NNE,4.6,-,N/A,,Overcast,30,2013-04-30 13:55:00
10:15 AM,63.3,57.2,80,30.10,10.0,ENE,5.8,-,N/A,,Mostly Cloudy,60,2013-04-30 14:15:00
10:35 AM,64.4,58.1,80,30.10,10.0,NNE,6.9,-,N/A,,Mostly Cloudy,20,2013-04-30 14:35:00
10:55 AM,66.2,60.1,81,30.10,10.0,NNE,6.9,-,N/A,,Mostly Cloudy,30,2013-04-30 14:55:00
11:15 AM,66.7,60.3,80,30.11,10.0,NNE,8.1,-,N/A,,Scattered Clouds,20,2013-04-30 15:15:00
11:35 AM,68.0,60.4,77,30.10,10.0,NE,6.9,-,N/A,,Scattered Clouds,40,2013-04-30 15:35:00
11:55 AM,70.0,61.7,75,30.10,10.0,North,8.1,-,N/A,,Scattered Clouds,10,2013-04-30 15:55:00
12:15 PM,70.7,62.2,75,30.10,10.0,North,4.6,-,N/A,,Scattered Clouds,350,2013-04-30 16:15:00
12:35 PM,72.0,62.8,73,30.10,10.0,NNE,9.2,-,N/A,,Scattered Clouds,20,2013-04-30 16:35:00
12:55 PM,71.6,62.6,73,30.09,10.0,NNE,10.4,-,N/A,,Clear,20,2013-04-30 16:55:00
1:15 PM,69.8,61.3,74,30.09,10.0,NNE,9.2,-,N/A,,Scattered Clouds,30,2013-04-30 17:15:00
1:55 PM,73.0,63.7,72,30.08,10.0,North,5.8,-,N/A,,Clear,350,2013-04-30 17:55:00
2:15 PM,73.0,61.2,66,30.08,10.0,ENE,6.9,-,N/A,,Clear,60,2013-04-30 18:15:00
2:35 PM,73.0,61.2,66,30.08,10.0,North,6.9,-,N/A,,Clear,350,2013-04-30 18:35:00
2:55 PM,73.0,59.4,62,30.07,10.0,NNW,8.1,-,N/A,,Clear,330,2013-04-30 18:55:00
3:15 PM,73.0,59.9,63,30.07,10.0,NNW,11.5,-,N/A,,Scattered Clouds,340,2013-04-30 19:15:00
3:35 PM,73.2,59.5,62,30.07,10.0,NNW,10.4,-,N/A,,Scattered Clouds,340,2013-04-30 19:35:00
3:55 PM,74.7,59.2,58,30.06,10.0,North,8.1,-,N/A,,Scattered Clouds,10,2013-04-30 19:55:00
4:15 PM,73.0,59.7,63,30.06,10.0,North,8.1,-,N/A,,Scattered Clouds,360,2013-04-30 20:15:00
4:35 PM,73.0,60.8,65,30.07,10.0,North,6.9,-,N/A,,Scattered Clouds,10,2013-04-30 20:35:00
4:55 PM,73.0,61.2,66,30.07,10.0,North,5.8,-,N/A,,Scattered Clouds,360,2013-04-30 20:55:00
5:15 PM,73.0,61.3,67,30.08,10.0,NNW,5.8,-,N/A,,Scattered Clouds,330,2013-04-30 21:15:00
5:35 PM,73.0,59.0,61,30.08,10.0,North,11.5,16.1,N/A,,Mostly Cloudy,360,2013-04-30 21:35:00
5:55 PM,73.0,60.4,65,30.08,10.0,North,12.7,-,N/A,,Scattered Clouds,360,2013-04-30 21:55:00
6:15 PM,73.0,61.0,66,30.08,10.0,NNW,9.2,-,N/A,,Clear,330,2013-04-30 22:15:00
6:35 PM,73.0,61.7,67,30.09,10.0,North,11.5,18.4,N/A,,Clear,350,2013-04-30 22:35:00
6:55 PM,70.7,59.7,68,30.09,10.0,North,10.4,17.3,N/A,,Clear,360,2013-04-30 22:55:00
7:15 PM,68.0,57.7,70,30.10,10.0,North,9.2,-,N/A,,Clear,350,2013-04-30 23:15:00
7:35 PM,66.9,57.4,71,30.10,10.0,NNW,6.9,-,N/A,,Clear,340,2013-04-30 23:35:00
7:55 PM,66.0,56.8,72,30.11,10.0,NNW,4.6,-,N/A,,Clear,340,2013-04-30 23:55:00
8:15 PM,64.6,56.8,76,30.11,10.0,NNW,4.6,-,N/A,,Scattered Clouds,340,2013-05-01 00:15:00
8:35 PM,63.0,56.3,79,30.12,10.0,Calm,Calm,-,N/A,,Clear,0,2013-05-01 00:35:00
8:55 PM,63.0,56.8,80,30.13,10.0,North,3.5,-,N/A,,Clear,350,2013-05-01 00:55:00
9:15 PM,63.0,56.8,80,30.13,10.0,North,3.5,-,N/A,,Clear,350,2013-05-01 01:15:00
9:35 PM,63.0,56.8,80,30.14,10.0,North,3.5,-,N/A,,Clear,350,2013-05-01 01:35:00
9:55 PM,61.0,55.0,81,30.14,10.0,North,6.9,-,N/A,,Clear,360,2013-05-01 01:55:00
10:15 PM,60.4,54.5,81,30.14,10.0,North,4.6,-,N/A,,Clear,350,2013-05-01 02:15:00
10:35 PM,60.4,54.5,81,30.14,10.0,North,6.9,-,N/A,,Scattered Clouds,360,2013-05-01 02:35:00
10:55 PM,60.8,54.5,80,30.14,10.0,North,6.9,-,N/A,,Mostly Cloudy,350,2013-05-01 02:55:00
11:15 PM,60.8,54.7,80,30.14,10.0,North,3.5,-,N/A,,Overcast,360,2013-05-01 03:15:00
11:35 PM,60.4,54.5,81,30.14,10.0,North,6.9,-,N/A,,Mostly Cloudy,360,2013-05-01 03:35:00
11:55 PM,60.4,54.5,81,30.14,10.0,North,8.1,-,N/A,,Mostly Cloudy,360,2013-05-01 03:55:00